EHI
0 0 0 0 0 0 0 0 0 0 0 0 0 1 0 0 0 0 0 0 0 0 0 0 0 0 0 0 0 0 0 0 0 0 0 0 0 0 0 0 0 0 0
0 0 0 0 0 0 0 0 0 0 0 0 0 1 0 0 0 0 0 0 0 0 0 0 0 0 0 0 0 0 0 0 0 0 0 0 0 0 0 0 0 0 0
0 0 0 0 0 0 0 0 0 0 0 0 0 0 0 0 0 0 0 0 0 0 0 0 0 0 0 0 0 0 0 0 0 0 0 0 0 0 0 0 0 0 0
0 0 0 0 0 0 0 0 0 0 0 0 0 0 0 0 0 0 0 0 0 0 0 0 0 0 0 0 0 0 0 0 0 0 0 0 0 0 0 0 0 0 0
0 0 0 0 0 0 0 0 0 0 0 0 0 0 0 0 0 0 0 0 0 0 0 0 0 0 0 0 0 0 0 0 0 0 0 0 0 0 0 0 0 0 0
0 0 0 0 0 0 0 0 0 0 0 0 0 0 0 0 0 0 0 0 0 0 0 0 0 0 0 0 0 0 0 0 0 0 0 0 0 0 0 0 0 0 0
1 0 0 0 0 0 0 0 0 0 0 0 0 0 0 0 0 0 0 0 0 0 0 0 0 0 0 0 0 0 0 0 0 0 0 0 0 0 0 0 0 0 0
2 1 0 0 0 0 0 0 0 0 0 0 0 0 0 0 0 0 0 0 0 0 0 0 0 0 0 0 0 0 0 0 0 0 0 0 0 0 0 0 0 0 0
3 2 1 0 0 0 0 0 0 0 0 0 0 0 0 0 0 0 0 0 0 0 0 0 0 0 0 0 0 0 0 0 0 0 0 0 0 0 0 0 0 0 0
3 3 2 1 0 0 0 0 0 0 0 0 0 0 0 0 0 0 0 0 0 0 0 0 0 0 0 0 0 0 0 0 0 0 0 0 0 0 0 0 0 0 0
2 3 3 2 1 1 0 0 0 0 0 0 0 0 0 0 0 0 0 0 0 0 0 0 0 0 0 0 0 0 0 0 0 0 0 0 0 0 0 0 0 0 0
1 2 3 3 3 2 1 1 0 0 0 0 0 0 0 0 0 0 0 0 0 0 0 0 0 0 0 0 0 0 0 0 0 0 0 0 0 0 0 0 0 0 0
2 2 2 3 3 3 3 2 1 0 0 0 0 0 0 0 0 0 0 0 0 0 0 0 0 0 0 0 0 0 0 0 0 0 0 0 0 0 0 0 0 0 0
4 3 2 1 1 2 3 3 1 0 0 0 0 0 0 0 0 0 0 0 0 0 0 0 0 0 0 0 0 0 0 0 0 0 0 0 0 0 0 0 0 0 0
5 4 3 1 0 1 2 2 1 0 0 0 0 0 0 0 0 0 0 0 0 0 0 0 0 0 0 0 0 0 0 0 0 0 0 0 0 0 0 0 0 0 0
4 4 4 3 1 0 1 1 1 0 0 0 0 0 0 0 0 0 0 0 0 0 0 0 0 0 0 0 0 0 0 0 0 0 0 0 0 0 0 0 0 0 0
4 4 6 5 3 1 1 0 0 0 0 0 0 0 0 0 0 0 0 0 0 0 0 0 0 0 0 0 0 0 0 0 0 0 0 0 0 0 0 0 0 0 0
5 5 6 6 5 4 2 1 0 0 0 0 0 0 0 0 0 0 0 0 0 0 0 0 0 0 0 0 0 0 0 0 0 0 0 0 0 0 0 0 0 0 0
6 6 6 6 6 5 3 1 0 0 0 0 0 0 0 0 0 0 0 0 0 0 0 0 0 0 0 0 0 0 0 0 0 0 0 0 0 0 0 0 0 0 0
5 4 4 5 6 6 4 2 1 0 0 0 0 0 0 0 0 0 0 0 0 0 0 0 0 0 0 0 0 0 0 0 0 0 0 0 0 0 0 0 0 0 0
4 3 3 4 5 5 4 2 1 1 0 0 0 0 0 0 0 0 0 0 0 0 0 0 0 0 0 0 0 0 0 0 0 0 0 0 0 0 0 0 0 0 0
2 2 2 2 3 3 2 1 1 1 0 0 0 0 0 0 0 0 0 0 0 0 0 0 0 0 0 0 0 0 0 0 0 0 0 0 0 0 0 0 0 0 0
1 1 1 0 1 1 0 0 0 0 0 0 0 0 0 0 0 0 0 0 0 0 0 0 0 0 0 0 0 0 0 0 0 0 0 0 0 0 0 0 0 0 0
0 0 0 0 0 0 0 0 0 0 0 0 0 0 0 0 0 0 0 0 0 0 0 0 0 0 0 0 0 0 0 0 0 0 0 0 0 0 0 0 0 0 0
0 0 0 0 0 0 0 0 0 0 0 0 0 0 0 0 0 0 0 0 0 0 0 0 0 0 0 0 0 0 0 0 0 0 0 0 0 0 0 0 0 0 0
0 0 0 0 0 0 0 0 0 0 0 0 0 0 0 0 0 0 0 0 0 0 0 0 0 0 0 0 0 0 0 0 0 0 0 0 0 0 0 0 0 0 0
Wind_Speed
3 2 1 2 2 2 2 2 2 2 3 2 3 4 4 3 3 2 1 4 5 5 6 6 6 7 7 7 7 7 6 6 6 5 5 6 6 7 7 6 6 6 5
3 3 2 2 1 1 2 2 2 2 2 2 2 3 3 3 3 2 1 1 3 4 5 5 6 6 6 6 6 6 6 6 6 5 4 5 6 6 6 6 6 5 5
4 3 2 2 1 2 2 2 3 3 2 2 2 2 2 2 2 2 2 1 1 2 4 4 5 5 6 6 6 6 6 5 5 5 5 5 5 5 5 6 6 5 5
5 4 3 2 2 2 2 3 2 2 2 2 2 1 1 1 2 2 2 1 1 0 1 3 3 4 4 5 5 5 5 5 5 5 5 5 5 5 5 6 6 6 5
5 4 3 2 3 2 2 2 2 2 2 2 2 2 2 1 1 1 2 2 1 1 0 1 1 2 3 3 4 4 5 5 6 6 6 6 6 5 5 5 5 6 6
6 5 3 3 4 3 2 2 3 2 2 2 2 3 2 2 1 0 1 1 1 2 1 1 0 0 1 1 2 3 3 4 5 6 6 6 6 6 6 5 5 6 6
6 5 4 4 4 3 3 4 3 3 2 2 3 3 3 2 2 1 0 0 1 1 2 1 1 1 0 1 1 2 3 3 4 5 6 6 6 5 6 6 6 6 6
6 6 5 4 4 3 4 4 3 3 2 2 3 2 2 2 2 2 1 1 1 1 2 2 2 2 1 0 0 1 2 3 4 4 5 5 5 5 6 6 6 6 6
6 5 6 5 4 4 4 4 4 4 3 1 1 3 3 2 1 2 1 1 0 1 1 1 2 2 2 1 1 1 1 1 2 3 4 4 4 4 5 5 5 6 6
6 6 6 6 5 4 4 4 4 3 4 3 1 1 1 3 2 0 1 1 1 0 1 1 1 2 2 1 1 2 2 2 2 2 2 2 3 3 3 4 5 5 5
5 6 6 6 5 4 5 4 4 4 3 4 3 2 2 2 2 2 1 1 1 1 0 1 1 1 1 2 2 2 2 2 2 1 1 1 1 2 3 3 4 4 4
3 5 6 5 5 4 5 5 5 5 4 4 3 3 3 3 3 3 2 1 1 1 1 1 1 2 2 2 3 3 3 3 3 2 2 1 1 2 2 3 4 5 5
4 5 6 5 5 5 5 5 4 4 4 4 4 3 3 3 3 3 3 2 1 1 1 1 1 2 2 2 2 4 4 4 3 3 2 2 2 2 3 3 4 5 5
6 6 6 6 6 6 5 5 4 4 4 4 4 4 3 3 3 3 4 4 2 0 1 2 1 2 2 2 3 4 3 4 4 4 3 4 4 4 4 4 5 5 5
5 7 7 6 6 6 6 5 3 4 4 4 4 4 3 2 3 2 3 4 4 3 3 3 2 2 2 2 3 3 3 4 5 5 5 5 6 6 6 6 6 6 7
6 7 7 7 6 6 6 5 4 4 4 3 3 4 3 2 2 2 3 2 2 4 3 3 2 1 1 2 3 3 3 4 5 6 6 7 8 8 8 8 8 8 8
8 8 7 7 7 6 6 5 5 5 5 4 4 4 4 3 3 2 2 3 2 3 3 2 1 1 2 2 1 2 2 3 3 6 7 8 8 8 8 8 8 9 8
8 8 7 7 7 7 7 7 6 6 6 6 5 5 5 4 4 3 3 3 3 3 3 3 2 1 2 2 2 2 2 2 3 5 7 8 8 8 8 8 8 8 8
8 8 8 8 7 7 7 7 6 6 6 6 6 6 6 6 5 3 4 3 3 3 2 2 2 1 1 1 1 1 2 2 3 4 5 6 7 7 7 8 8 8 8
9 9 8 8 8 7 7 7 7 6 6 5 6 6 6 7 7 6 5 5 4 3 3 2 2 1 1 1 1 1 2 2 3 3 3 4 5 6 7 8 8 8 9
9 8 8 7 7 7 7 8 7 7 7 6 5 6 6 7 8 7 5 5 5 4 3 3 2 2 2 2 2 2 3 3 3 3 3 3 3 3 4 6 7 8 8
7 7 8 8 8 7 9 12 9 7 7 7 6 5 5 7 8 10 9 9 8 7 6 4 3 4 4 4 3 3 2 2 3 2 2 4 3 4 5 5 6 8 9
7 8 8 8 8 8 11 12 13 8 7 7 7 6 5 5 7 6 7 8 9 10 9 6 6 6 5 6 5 4 4 5 5 2 2 5 3 5 5 5 8 9 9
7 7 8 8 7 8 11 12 12 8 6 7 7 8 7 6 6 7 6 5 6 6 8 7 6 7 6 5 6 4 4 4 4 4 4 5 4 5 5 5 8 9 9
7 7 7 8 8 7 10 11 10 6 6 7 7 7 7 7 9 9 6 6 6 5 7 9 8 7 7 7 6 3 3 3 5 4 4 4 4 4 5 6 6 8 9
7 7 7 7 8 7 9 12 11 5 6 6 5 6 9 9 9 10 7 7 7 6 5 4 5 5 5 6 7 7 5 5 4 4 3 4 4 3 5 4 4 4 5
Wind_Direction
143 134 119 103 96 89 92 93 88 92 93 99 117 123 130 133 129 125 138 169 167 164 162 164 164 161 158 157 155 157 158 152 150 150 156 160 159 156 154 151 149 150 150
153 147 138 127 115 105 103 106 111 106 96 100 108 120 131 132 130 129 114 158 170 174 177 177 176 175 171 166 167 170 171 167 160 161 168 169 171 169 167 166 166 165 164
160 153 151 159 156 124 114 98 91 85 94 94 94 104 116 130 138 136 125 108 160 197 193 191 190 188 186 181 179 180 178 174 170 170 175 175 178 181 180 181 183 180 181
163 156 161 173 150 127 118 113 104 89 81 90 94 86 91 106 135 144 145 152 151 199 224 215 207 200 197 198 192 189 183 183 182 184 185 183 183 187 193 196 195 194 199
167 162 167 165 147 136 132 137 109 114 117 112 105 80 67 81 108 155 165 170 168 171 193 260 240 214 208 213 204 199 194 195 189 192 198 199 199 197 200 205 206 208 211
166 161 163 160 150 139 137 128 116 99 108 118 95 72 46 40 62 88 203 174 176 181 177 189 9 114 175 219 220 212 204 208 199 201 205 206 208 205 205 209 214 216 219
165 162 163 155 155 155 157 141 121 111 102 111 91 62 33 36 50 37 32 161 180 184 170 177 175 174 227 238 248 222 209 215 208 208 209 211 211 211 215 219 221 224 229
169 170 162 162 160 151 145 146 135 125 117 122 121 106 49 7 9 24 33 177 184 159 176 182 181 189 201 198 239 223 205 211 211 208 209 211 214 212 218 225 229 232 237
173 169 168 164 165 161 166 170 156 146 143 127 123 139 145 198 312 355 12 38 84 147 185 168 187 192 190 191 216 237 215 200 213 219 220 216 216 222 230 234 235 235 238
173 171 169 167 167 167 170 178 164 155 144 149 129 98 128 147 145 88 358 13 13 191 210 201 194 192 184 184 194 204 202 190 199 211 205 205 213 226 238 248 250 246 241
176 175 171 168 169 170 176 173 162 162 155 155 157 148 121 91 107 137 178 330 2 354 231 217 214 212 197 200 208 208 195 189 190 187 187 200 216 229 240 247 255 257 256
175 179 172 171 172 173 178 178 171 167 165 157 161 161 157 155 163 153 163 194 248 320 311 246 224 224 220 216 223 206 198 198 204 207 213 225 242 252 256 256 261 264 266
184 187 178 174 173 174 173 167 166 170 169 167 174 180 176 170 153 149 144 154 172 319 321 283 242 229 225 214 225 217 213 211 213 222 233 248 261 269 274 273 274 275 276
188 181 177 175 174 172 170 163 162 171 168 172 178 171 170 176 167 162 157 149 141 317 297 267 266 227 224 214 221 218 223 224 227 236 249 260 266 269 272 274 274 276 278
179 175 174 173 174 171 168 163 166 171 163 171 172 169 169 173 174 172 161 158 154 178 227 243 244 241 224 219 221 212 224 236 241 247 254 259 263 265 267 269 269 269 268
173 170 174 174 172 170 167 165 162 163 159 163 164 165 171 170 162 164 168 168 162 166 203 227 232 261 241 225 204 211 229 249 257 260 262 263 265 267 268 268 268 267 265
172 175 177 175 174 173 169 167 171 169 169 169 167 174 182 167 162 163 162 163 168 162 185 227 231 249 229 229 209 217 233 244 260 263 264 263 264 265 267 267 268 268 268
177 176 173 175 179 177 175 176 180 177 176 177 179 176 184 174 171 170 170 178 181 179 175 199 212 222 230 234 233 242 247 248 255 264 262 259 260 262 263 265 267 266 265
175 173 172 179 182 181 180 184 182 180 184 186 185 186 187 176 182 182 181 184 184 178 169 179 201 210 236 246 230 250 258 268 270 267 260 258 262 264 262 262 262 261 261
177 178 181 185 184 183 184 184 183 185 189 192 194 197 193 191 194 187 188 190 178 171 170 175 189 208 225 233 220 236 264 263 278 285 277 274 270 268 266 266 264 262 262
184 181 181 184 183 183 191 188 187 190 191 195 199 205 207 206 204 196 193 190 181 178 178 187 197 200 214 209 219 216 244 273 273 257 274 273 272 273 274 271 266 264 264
180 176 181 185 190 201 196 191 188 191 191 194 203 211 216 215 215 212 213 200 188 185 190 192 201 212 223 219 212 213 224 252 273 233 249 272 260 271 273 269 265 268 269
181 182 185 187 196 206 197 194 195 191 194 200 205 208 216 215 208 211 219 215 213 215 203 193 205 216 218 213 197 210 214 224 243 251 236 272 262 269 271 269 264 267 270
184 188 191 193 197 208 202 199 197 197 202 208 209 207 209 213 207 201 204 212 222 228 222 216 219 222 223 212 202 212 221 238 257 250 222 262 271 269 277 274 264 263 267
189 192 191 192 199 210 202 201 192 193 207 218 217 214 211 217 217 202 200 215 231 245 242 228 230 236 236 226 205 195 207 230 265 258 204 238 266 276 276 272 268 263 266
192 189 193 197 201 210 204 202 195 198 210 221 222 221 218 218 216 202 203 212 230 241 237 232 234 245 245 237 214 213 217 229 253 266 218 219 257 275 282 267 271 278 275